カタログに戻る

COSMOS 1084

運用中ナビゲーションLEO
NORAD 11299·PAYLOAD·🇷🇺 Russia

打ち上げ Mar 15, 1979 から Plesetsk Cosmodrome

Loading…

次のパス (今後24時間)

TLE

最新Source: Space-Track

元期: Sep 14, 2026, 13:48 UTC

1 11299U 79024D   26257.57563755 -.00000012  00000-0  26079-4 0  9991
2 11299  74.0338 200.3339 0002293 321.4540 151.3212 12.50494992168289

AllMySatでCOSMOS 1084をリアルタイム追跡

Download on the App Store